Location: Unspecified
(48.8656°N, 0.0000°E)
Time: 13:06:26
(UTC+00:00)

Altair - Pass Details

Date: 18 June 2019
Orbit: 1501 x 1683 km, 47.2° (Epoch: 22 July)

Event Time Altitude Azimuth Distance (km) Brightness Sun altitude
Rises 02:43:40 0° 288° (WNW) 4,872 9.9 -9.1°
Reaches altitude 10° 02:46:54 10° 284° (WNW) 3,903 9.4 -8.8°
Maximum altitude 02:56:22 49° 213° (SSW) 2,070 7.8 -7.8°
Drops below altitude 10° 03:05:56 10° 143° (SE) 3,937 9.5 -6.8°
Sets 03:09:13 0° 138° (SE) 4,917 10.1 -6.4°
